Location: Partizánske
(48.6285°N, 18.3769°E)
Time: 06:34:30
(UTC+02:00)

SR - All Passes

Search period start: 25 June 2022 00:00
Search period end: 05 July 2022 00:00
Orbit: 573 x 880 km, 66.7° (Epoch: 24 June)

Date Brightness Start Highest point End Pass type
(mag) Time Alt. Az. Time Alt. Az. Time Alt. Az.
25 Jun - 01:22:39 10° WNW 01:26:02 16° NNW 01:29:32 10° NNE visible
25 Jun - 03:07:58 10° NNW 03:10:37 13° N 03:13:18 10° NE visible
25 Jun - 04:50:08 10° NNW 04:54:52 24° NNE 04:59:37 10° E daylight
25 Jun - 06:31:55 10° NW 06:37:52 80° NE 06:43:46 10° SE daylight
25 Jun - 08:14:58 10° WNW 08:19:22 22° WSW 08:23:42 10° SSW daylight
25 Jun - 21:06:26 10° SSE 21:10:27 23° ESE 21:14:44 10° ENE daylight
25 Jun - 22:46:48 10° SW 22:51:59 66° NW 22:57:40 10° NNE visible
26 Jun - 00:31:08 10° WNW 00:35:13 21° NNW 00:39:28 10° NNE visible
26 Jun - 02:17:07 10° NNW 02:19:36 13° N 02:22:06 10° NNE visible
26 Jun - 04:00:07 10° NNW 04:04:05 18° NNE 04:08:07 10° ENE visible
26 Jun - 05:41:50 10° NNW 05:47:36 50° NE 05:53:18 10° ESE daylight
26 Jun - 07:24:11 10° NW 07:29:37 38° WSW 07:34:58 10° S daylight
26 Jun - 20:18:55 10° ESE 20:20:54 12° E 20:22:56 10° ENE daylight
26 Jun - 21:56:42 10° SSW 22:01:51 73° ESE 22:07:30 10° NE visible
26 Jun - 23:39:52 10° W 23:44:31 29° NW 23:49:29 10° NNE visible
27 Jun - 01:25:44 10° NW 01:28:35 14° N 01:31:30 10° NNE visible
27 Jun - 03:09:59 10° NNW 03:13:12 15° NNE 03:16:27 10° NE visible
27 Jun - 04:51:50 10° NNW 04:57:08 33° NE 05:02:26 10° ESE daylight
27 Jun - 06:33:48 10° NW 06:39:42 67° WSW 06:45:29 10° SSE daylight
27 Jun - 08:18:20 10° WNW 08:20:43 13° W 08:23:05 10° SW daylight
27 Jun - 21:07:08 10° S 21:11:56 40° ESE 21:17:07 10° NE daylight
27 Jun - 22:48:57 10° WSW 22:54:00 43° NW 22:59:27 10° NNE visible
28 Jun - 00:34:08 10° WNW 00:37:39 17° NNW 00:41:17 10° NNE visible
28 Jun - 02:19:34 10° NNW 02:22:13 13° N 02:24:53 10° NNE visible
28 Jun - 04:01:50 10° NNW 04:06:30 23° NNE 04:11:11 10° E visible
28 Jun - 05:43:37 10° NNW 05:49:34 75° NE 05:55:26 10° SE daylight
28 Jun - 07:26:34 10° WNW 07:31:08 24° WSW 07:35:38 10° SSW daylight
28 Jun - 20:18:18 10° SSE 20:22:12 22° ESE 20:26:21 10° ENE daylight
28 Jun - 21:58:26 10° SW 22:03:41 71° NW 22:09:23 10° NNE visible
28 Jun - 23:42:38 10° WNW 23:46:49 22° NNW 23:51:13 10° NNE visible
29 Jun - 01:28:39 10° NNW 01:31:11 13° N 01:33:45 10° NNE visible
29 Jun - 03:11:48 10° NNW 03:15:43 18° NNE 03:19:38 10° ENE visible
29 Jun - 04:53:33 10° NNW 04:59:16 47° NE 05:04:56 10° ESE daylight
29 Jun - 06:35:51 10° NW 06:41:22 41° WSW 06:46:46 10° S daylight
29 Jun - 19:31:12 10° ESE 19:32:40 11° E 19:34:10 10° E daylight
29 Jun - 21:08:25 10° SSW 21:13:34 68° ESE 21:19:12 10° NE daylight
29 Jun - 22:51:25 10° W 22:56:09 30° NW 23:01:12 10° NNE visible
30 Jun - 00:37:13 10° NW 00:40:10 14° NNW 00:43:12 10° NNE visible
30 Jun - 02:21:39 10° NNW 02:24:48 14° NNE 02:27:58 10° NE visible
30 Jun - 04:03:33 10° NNW 04:08:47 31° NE 04:14:00 10° E visible
30 Jun - 05:45:29 10° NW 05:51:25 71° WSW 05:57:13 10° SSE daylight
30 Jun - 07:29:42 10° WNW 07:32:30 14° WSW 07:35:16 10° SW daylight
30 Jun - 20:18:55 10° S 20:23:39 37° ESE 20:28:47 10° NE daylight
30 Jun - 22:00:32 10° WSW 22:05:39 46° NW 22:11:11 10° NNE visible
30 Jun - 23:45:37 10° WNW 23:49:14 17° NNW 23:52:59 10° NNE visible
01 Jul - 01:31:10 10° NNW 01:33:47 13° N 01:36:26 10° NNE visible
01 Jul - 03:13:33 10° NNW 03:18:08 23° NNE 03:22:43 10° E visible
01 Jul - 04:55:19 10° NNW 05:01:16 71° NE 05:07:06 10° SE daylight
01 Jul - 06:38:09 10° NW 06:42:54 25° WSW 06:47:31 10° SSW daylight
01 Jul - 19:30:12 10° SSE 19:33:57 20° ESE 19:37:56 10° ENE daylight
01 Jul - 21:10:05 10° SW 21:15:21 76° NW 21:21:06 10° NNE daylight
01 Jul - 22:54:09 10° W 22:58:26 23° NNW 23:02:57 10° NNE visible
02 Jul - 00:40:10 10° NNW 00:42:46 13° N 00:45:24 10° NNE visible
02 Jul - 02:23:30 10° NNW 02:27:19 17° NNE 02:31:09 10° ENE visible
02 Jul - 04:05:16 10° NNW 04:10:56 44° NE 04:16:33 10° ESE visible
02 Jul - 05:47:30 10° NW 05:53:06 44° WSW 05:58:34 10° S daylight
02 Jul - 18:43:56 10° ESE 18:44:27 10° E 18:44:58 10° E daylight
02 Jul - 20:20:06 10° SSW 20:25:16 63° ESE 20:30:53 10° NE daylight
02 Jul - 22:02:58 10° W 22:07:47 32° NW 22:12:56 10° NNE visible
02 Jul - 23:48:42 10° NW 23:51:46 14° NNW 23:54:54 10° NNE visible
03 Jul - 01:33:18 10° NNW 01:36:23 14° NNE 01:39:28 10° NE visible
03 Jul - 03:15:15 10° NNW 03:20:25 30° NE 03:25:34 10° E visible
03 Jul - 04:57:10 10° NW 05:03:07 76° WSW 05:08:56 10° SSE daylight
03 Jul - 06:41:07 10° WNW 06:44:16 15° WSW 06:47:22 10° SW daylight
03 Jul - 19:30:42 10° S 19:35:23 35° ESE 19:40:26 10° NE daylight
03 Jul - 21:12:08 10° WSW 21:17:19 49° NW 21:22:54 10° NNE daylight
03 Jul - 22:57:05 10° WNW 23:00:50 18° NNW 23:04:43 10° NNE visible
04 Jul - 00:42:46 10° NNW 00:45:22 13° N 00:48:00 10° NNE visible
04 Jul - 02:25:15 10° NNW 02:29:45 22° NNE 02:34:14 10° ENE visible
04 Jul - 04:07:01 10° NNW 04:12:57 66° NE 04:18:46 10° SE visible
04 Jul - 05:49:46 10° NW 05:54:39 27° WSW 05:59:24 10° SSW daylight
04 Jul - 18:42:06 10° SSE 18:45:42 19° ESE 18:49:30 10° ENE daylight
04 Jul - 20:21:44 10° SW 20:27:02 81° NW 20:32:49 10° NE daylight
04 Jul - 22:05:39 10° W 22:10:03 24° NNW 22:14:40 10° NNE visible
04 Jul - 23:51:41 10° NNW 23:54:20 13° N 23:57:02 10° NNE visible
